Estación municipal de St. Hilari Sacalm (La Selva, Guilleries)

Consulta los datos en tiempo real de la estación municipal de St. Hilari Sacalm





Hora UTC 06:55
Temperatura 23.6 ºC
Humedad 60.2 %
Presión 1025.1 hPa
Pluja 0.0 mm
Velocidad viento 0.6 km/h
Dirección viento NW
Radiación solar 245.4 W/m²

Webcam

Datos diarios 2026-09-03



Hora UTC (invierno +1h; verano +2h)
Temperatura (ºC) Humedad (%) Presión (hPa) Velocidad viento (km/h) Precipitación (mm) Radiación solar (W/m²)
Hora UTC Aire Humedad Presión Vel. Dir. Vel. Max Dir. Intent. máx 5 min. Rad. Sol.
00:05 18.8 76.6 1024.8 0.0 NNE 0.0 SSW 0.0 0.1
00:10 18.7 76.7 1024.9 0.0 NNE 0.0 SW 0.0 0.1
00:15 18.6 76.8 1024.9 0.0 NNE 0.0 WSW 0.0 0.1
00:20 18.5 77.1 1024.9 0.0 NNE 0.0 S 0.0 0.1
00:25 18.4 77.7 1024.9 0.0 NNE 0.0 W 0.0 0.1
00:30 18.5 77.6 1024.9 0.0 NNE 0.0 W 0.0 0.1
00:35 18.5 77.2 1024.9 0.0 NNE 0.0 W 0.0 0.1
00:40 18.5 77.3 1025.0 0.0 NNE 0.0 W 0.0 0.1
00:45 18.5 77.3 1025.0 0.0 NNE 0.0 WSW 0.0 0.1
00:50 18.4 77.5 1024.9 0.0 NNE 0.0 SSW 0.0 0.1
00:55 18.3 77.7 1024.9 0.0 NNE 0.0 SSW 0.0 0.1
01:00 18.3 77.7 1024.9 0.0 NNE 0.0 S 0.0 0.1
01:05 18.2 77.6 1024.9 0.0 WSW 3.4 WSW 0.0 0.1
01:10 18.1 78.1 1024.9 0.4 WSW 6.1 W 0.0 0.1
01:15 18.0 78.5 1024.9 0.1 WSW 6.1 W 0.0 0.2
01:20 17.9 78.8 1024.9 0.0 WNW 3.4 W 0.0 0.1
01:25 17.9 78.8 1024.8 0.0 NNE 0.0 W 0.0 0.1
01:30 17.9 78.3 1024.8 0.0 WSW 3.4 WSW 0.0 0.1
01:35 17.9 78.4 1024.8 0.9 W 6.1 WNW 0.0 0.1
01:40 18.1 78.5 1024.8 0.0 NNE 0.0 WNW 0.0 0.1
01:45 18.2 78.2 1024.8 0.0 WSW 3.4 WNW 0.0 0.1
01:50 18.0 78.3 1024.8 0.0 NNE 0.0 WSW 0.0 0.1
01:55 18.0 79.1 1024.8 0.0 W 3.4 W 0.0 0.1
02:00 18.0 79.9 1024.8 0.2 W 6.1 WNW 0.0 0.1
02:05 18.0 80.0 1024.7 0.0 NNE 0.0 W 0.0 0.1
02:10 17.9 80.1 1024.7 0.0 NNE 0.0 WSW 0.0 0.1
02:15 17.8 80.5 1024.7 0.1 W 3.4 W 0.0 0.1
02:20 17.7 81.3 1024.7 0.1 W 3.4 NW 0.0 0.1
02:25 17.7 81.8 1024.7 0.0 WSW 3.4 WSW 0.0 0.1
02:30 17.7 82.2 1024.7 0.1 WSW 6.1 WSW 0.0 0.1
02:35 17.7 82.3 1024.7 0.1 SW 3.4 SW 0.0 0.1
02:40 17.7 82.5 1024.7 0.3 WSW 6.1 W 0.0 0.1
02:45 17.6 82.5 1024.7 0.1 SW 3.4 SW 0.0 0.1
02:50 17.5 82.8 1024.7 0.0 NNE 0.0 WSW 0.0 0.2
02:55 17.4 83.1 1024.7 0.0 NNE 0.0 SW 0.0 0.1
03:00 17.3 83.6 1024.6 0.0 NNE 0.0 WSW 0.0 0.1
03:05 17.3 84.1 1024.6 0.0 NNE 0.0 W 0.0 0.1
03:10 17.2 84.4 1024.6 0.0 NNE 0.0 SW 0.0 0.1
03:15 17.1 84.5 1024.6 0.0 NNE 0.0 WSW 0.0 0.1
03:20 17.0 85.2 1024.6 0.0 NNE 0.0 W 0.0 0.1
03:25 17.1 85.8 1024.5 0.0 NNE 0.0 W 0.0 0.1
03:30 17.1 85.5 1024.5 0.0 NNE 0.0 WSW 0.0 0.1
03:35 17.1 85.4 1024.5 0.0 NNE 0.0 W 0.0 0.1
03:40 17.2 85.7 1024.4 0.0 NNE 0.0 W 0.0 0.1
03:45 17.3 85.3 1024.4 0.0 NNE 0.0 NW 0.0 0.1
03:50 17.3 85.1 1024.4 0.0 NNE 0.0 WSW 0.0 0.1
03:55 17.3 85.0 1024.3 0.0 NNE 0.0 WSW 0.0 0.1
04:00 17.3 84.8 1024.3 0.0 NNE 0.0 WSW 0.0 0.1
04:05 17.4 84.8 1024.3 0.0 NNE 0.0 WNW 0.0 0.1
04:10 17.5 84.1 1024.2 0.0 NNE 0.0 W 0.0 0.1
04:15 17.8 83.0 1024.2 0.0 NNE 0.0 W 0.0 0.1
04:20 17.8 81.9 1024.3 0.0 NNE 0.0 WNW 0.0 0.1
04:25 17.8 81.6 1024.2 0.0 NNE 0.0 WNW 0.0 0.1
04:30 17.7 81.8 1024.2 0.0 NNE 0.0 WSW 0.0 0.1
04:35 17.5 82.7 1024.2 0.0 NNE 0.0 SW 0.0 0.1
04:40 17.3 83.6 1024.2 0.0 NNE 0.0 W 0.0 0.1
04:45 17.2 83.9 1024.2 0.0 NNE 0.0 W 0.0 0.1
04:50 17.2 83.9 1024.3 0.0 NNE 0.0 WNW 0.0 0.1
04:55 17.3 83.5 1024.2 0.0 NNE 0.0 W 0.0 0.2
05:00 17.3 83.2 1024.3 0.0 NNE 0.0 WSW 0.0 0.3
05:05 17.3 83.3 1024.3 0.0 NNE 0.0 WNW 0.0 0.7
05:10 17.4 83.5 1024.3 0.0 NNE 0.0 WSW 0.0 1.3
05:15 17.4 83.1 1024.3 0.0 NNE 0.0 SSW 0.0 2.3
05:20 17.3 83.6 1024.4 0.0 NNE 0.0 W 0.0 3.8
05:25 17.2 84.1 1024.4 0.0 NNE 0.0 W 0.0 5.9
05:30 17.3 84.4 1024.5 0.0 NNE 0.0 WSW 0.0 9.1
05:35 17.4 83.8 1024.5 0.0 NNE 0.0 W 0.0 12.3
05:40 17.4 83.5 1024.5 0.0 NNE 0.0 WNW 0.0 16.0
05:45 17.7 82.8 1024.6 0.0 NNE 0.0 W 0.0 19.3
05:50 17.9 81.7 1024.7 0.0 NNE 0.0 WSW 0.0 50.8
05:55 18.0 81.2 1024.7 0.0 NNE 0.0 NW 0.0 69.4
06:00 18.3 80.8 1024.7 0.0 NNE 0.0 W 0.0 83.4
06:05 19.0 78.6 1024.8 0.0 NNE 0.0 W 0.0 96.4
06:10 19.7 76.0 1024.8 0.0 NNE 0.0 WNW 0.0 110.4
06:15 20.6 72.5 1024.9 0.0 NNE 0.0 W 0.0 124.5
06:20 21.5 68.7 1024.9 0.0 NNE 0.0 WNW 0.0 138.8
06:25 21.9 66.9 1024.9 0.0 NNE 0.0 NW 0.0 153.0
06:30 22.3 65.3 1025.0 0.1 W 6.1 W 0.0 168.1
06:35 22.7 63.1 1025.0 2.3 WNW 8.8 NW 0.0 183.5
06:40 23.1 61.9 1025.0 0.8 WNW 8.8 NW 0.0 198.9
06:45 23.3 61.3 1025.0 0.0 NNE 0.0 WNW 0.0 214.3
06:50 23.3 60.8 1025.1 2.0 NW 11.5 W 0.0 229.9
06:55 23.6 60.2 1025.1 0.6 NW 6.1 NW 0.0 245.4
Máxima 23.6 85.8 1025.1 2.3 WNW 11.5 W 0.0 245.4
Mínima 17.0 60.2 1024.2
Total 0.0